Content
SEND FEEDBACK

Daily
Averages
Monthly
Summary
French Polynesia

HITIAA, FRENCH POLYNESIA


Home > Oceania > French Polynesia
Elevation: 7 feet     Latitude: 17 33S     Longitude: 149 37W

WEATHER
 
SELECT A DAY
Number of Records: 207,861;   Date Range: 6/30/96 - 7/9/14
 
SHARE

PRINT THIS DATA

[ ← Previous Day ]
WEATHER ALMANAC - JANUARY 16, 2013
[ Next Day → ]
[ °C ]   °F
Weather ElementAverageHighLow
Temperature80.6 °F87.8 °F (2:00 pm)75 °F (2:00 am)
Dewpoint70.8 °F75.2 °F (12:30 pm)66.2 °F (3:30 am)
Humidity71 %89 % (7:00 pm)51 % (2:00 pm)
Barometer29.82 in29.87 in (8:00 am)29.74 in (3:30 pm)
Wind Speed9.8 mph29.1 mph (11:00 am)
Wind Gust35.7 mph (6:00 pm)
Weather ElementAverage
Visibility7.5 mi
Wind DirectionENE (60.9 °)

Weather ElementTotal
Precipitation---
Cooling Degree Days16.4 (Base 65)
Growing Degree Days31.4 (Base 50)
Averaged from 55 records on January 16, 2013
WEATHER CONDITIONS BREAKOUT
WIND DIRECTION BREAKOUT
WEATHER BY HOUR - JANUARY 16, 2013
[ °C ]   °F
Local TimeTemperatureDewpointHumidityBarometerVisibilityWind DirectionWind SpeedGust SpeedPrecipitationEventsConditions
12:30 AM77.0 °F69.8 °F78 %29.83 in6.2 miSSE (160°)8.1 mphPartly Cloudy
1:00 AM78.8 °F69.8 °F74 %29.83 in6.2 miSouth (180°)8.1 mphPartly Cloudy
1:30 AM77.0 °F68.0 °F74 %29.83 in6.2 miVariable2.3 mphPartly Cloudy
2:00 AM75.0 °F68.0 °F72 %29.83 in12.0 miSSE (150°)4.5 mphScattered Clouds
2:00 AM75.2 °F68.0 °F78 %29.80 in6.2 miVariable2.3 mphPartly Cloudy
2:30 AM75.2 °F68.0 °F78 %29.80 in6.2 miVariable3.5 mphPartly Cloudy
3:00 AM75.2 °F68.0 °F78 %29.80 in6.2 miSouth (180°)6.9 mphPartly Cloudy
3:30 AM75.2 °F66.2 °F73 %29.80 in6.2 miSouth (170°)5.8 mph
4:00 AM75.2 °F66.2 °F73 %29.80 in6.2 miVariable3.5 mph
4:30 AM75.2 °F66.2 °F73 %29.80 in6.2 miVariable3.5 mph
5:00 AM75.0 °F67.0 °F70 %29.83 in37.0 miSouth (170°)4.5 mphClear
5:00 AM75.2 °F68.0 °F78 %29.83 in6.2 miVariable2.3 mph
5:30 AM75.2 °F66.2 °F73 %29.83 in6.2 miVariable2.3 mph
6:00 AM75.2 °F66.2 °F73 %29.83 in6.2 miEast (90°)3.5 mphMostly Cloudy
6:30 AM77.0 °F68.0 °F74 %29.86 in6.2 miVariable2.3 mphMostly Cloudy
7:00 AM77.0 °F69.8 °F78 %29.86 in6.2 miCalmMostly Cloudy
7:30 AM82.4 °F69.8 °F66 %29.86 in6.2 miVariable2.3 mphMostly Cloudy
8:00 AM81.0 °F71.0 °F65 %29.87 in4.0 miNE (50°)13.4 mphRainLight Rain Showers
8:00 AM80.6 °F71.6 °F74 %29.86 in3.7 miNE (50°)6.9 mphRainLight Rain Showers
8:30 AM80.6 °F71.6 °F74 %29.86 in6.2 miEast (80°)4.6 mphMostly Cloudy
9:00 AM82.4 °F73.4 °F74 %29.86 in6.2 miNE (40°)5.8 mphMostly Cloudy
9:30 AM82.4 °F73.4 °F74 %29.86 in6.2 miNE (40°)11.5 mphMostly Cloudy
10:00 AM84.2 °F73.4 °F70 %29.86 in6.2 miENE (60°)12.7 mphMostly Cloudy
10:30 AM84.2 °F73.4 °F70 %29.83 in6.2 miENE (60°)12.7 mphMostly Cloudy
11:00 AM85.0 °F73.0 °F59 %29.85 in12.0 miENE (70°)29.1 mphPartly Cloudy
11:00 AM84.2 °F73.4 °F70 %29.83 in6.2 miENE (70°)15.0 mphMostly Cloudy
11:30 AM84.2 °F73.4 °F70 %29.83 in6.2 miNE (50°)13.8 mphMostly Cloudy
12:00 PM86.0 °F73.4 °F66 %29.80 in6.2 miNE (40°)16.1 mphMostly Cloudy
12:30 PM86.0 °F75.2 °F70 %29.80 in6.2 miNE (50°)16.1 mphMostly Cloudy
1:00 PM84.2 °F73.4 °F70 %29.80 in6.2 miNE (50°)13.8 mphMostly Cloudy
1:30 PM86.0 °F71.6 °F62 %29.80 in6.2 miNE (50°)15.0 mphMostly Cloudy
2:00 PM87.0 °F72.0 °F51 %29.79 in16.0 miNE (50°)13.8 mphPartly Cloudy
2:00 PM87.8 °F71.6 °F58 %29.77 in6.2 miNE (50°)13.8 mphMostly Cloudy
2:30 PM82.4 °F75.2 °F79 %29.77 in6.2 miNE (50°)8.1 mphMostly Cloudy
3:00 PM84.2 °F73.4 °F70 %29.77 in6.2 miNE (50°)15.0 mphMostly Cloudy
3:30 PM84.2 °F71.6 °F66 %29.74 in6.2 miENE (60°)15.0 mphMostly Cloudy
4:00 PM86.0 °F73.4 °F66 %29.77 in6.2 miENE (60°)12.7 mphMostly Cloudy
4:30 PM84.2 °F71.6 °F66 %29.77 in6.2 miENE (60°)13.8 mphMostly Cloudy
5:00 PM84.0 °F72.0 °F60 %29.78 in16.0 miENE (60°)24.6 mphPartly Cloudy
5:00 PM84.2 °F71.6 °F66 %29.77 in6.2 miENE (60°)12.7 mphMostly Cloudy
5:30 PM82.4 °F73.4 °F74 %29.77 in6.2 miENE (60°)11.5 mphMostly Cloudy
6:00 PM80.6 °F69.8 °F70 %29.80 in6.2 miENE (60°)17.3 mph35.7 mphSqualls
6:30 PM77.0 °F71.6 °F83 %29.80 in6.2 miENE (70°)8.1 mphRainLight Rain
7:00 PM77.0 °F73.4 °F89 %29.80 in6.2 miENE (60°)5.8 mphMostly Cloudy
7:30 PM78.8 °F71.6 °F78 %29.80 in6.2 miENE (70°)8.1 mphMostly Cloudy
8:00 PM80.0 °F71.0 °F68 %29.83 in12.0 miENE (70°)15.7 mphPartly Cloudy
8:00 PM78.8 °F71.6 °F78 %29.83 in6.2 miENE (70°)8.1 mphMostly Cloudy
8:30 PM80.6 °F69.8 °F70 %29.83 in6.2 miENE (70°)10.4 mphMostly Cloudy
9:00 PM80.6 °F71.6 °F74 %29.83 in6.2 miENE (70°)9.2 mphMostly Cloudy
9:30 PM80.6 °F71.6 °F74 %29.83 in6.2 miENE (70°)10.4 mphMostly Cloudy
10:00 PM80.6 °F71.6 °F74 %29.83 in6.2 miENE (70°)11.5 mphMostly Cloudy
10:30 PM80.6 °F71.6 °F74 %29.83 in6.2 miENE (70°)10.4 mphMostly Cloudy
11:00 PM82.0 °F70.0 °F58 %29.83 in12.0 miENE (60°)11.5 mphOvercast
11:00 PM82.4 °F69.8 °F66 %29.80 in6.2 miENE (60°)11.5 mphMostly Cloudy
11:30 PM82.4 °F68.0 °F62 %29.80 in6.2 miENE (60°)9.2 mphMostly Cloudy
Hourly data recorded from NTAA, located miles away from Hitiaa, French Polynesia







STORIES FROM OUR PARTNERS